Regional Weather Roundup
Issued by NWS

Home | Current Version | Previous Version | Graphics & Text | Print | Product List | Glossary Off
Versions: 1 2 3 4 5 6 7 8 9 10 11 12 13 14 15 16 17 18 19 20 21 22 23 24 25 26 27 28 29 30 31 32 33 34 35 36 37 38 39 40 41 42 43 44 45 46 47 48 49 50

000
ASUS45 KBOU 280107
RWRCO

WEATHER ROUNDUP FOR COLORADO
NATIONAL WEATHER SERVICE DENVER/BOULDER CO
700 PM MDT THU AUG 27 2015

NOTE: "FAIR" INDICATES FEW OR NO CLOUDS BELOW 12000 FEET WITH NO
SIGNIFICANT WEATHER AND/OR OBSTRUCTIONS TO VISIBILITY.

COZ001>005-013-030-031-280200-
...NORTHWEST COLORADO...

CITY           SKY/WX    TMP DP  RH WIND       PRES   REMARKS
CRAIG          PTCLDY    73  51  46 SW10      30.21S
HAYDEN         NOT AVBL
MEEKER         MOCLDY    72  53  51 E8        30.24S
MOUNT WERNER   NOT AVBL
STEAMBOAT SPGS PTCLDY    66  54  65 SE8       30.26F
WALDEN         PTCLDY    61  46  59 SE5       30.34F
$$

COZ006>008-011-280200-
...WEST CENTRAL VALLEYS...

CITY           SKY/WX    TMP DP  RH WIND       PRES   REMARKS
GRAND JUNCTION MOCLDY    80  57  45 NE10      30.14R
MONTROSE       PTCLDY    78  51  38 N5        30.23S
EAGLE          PTCLDY    66  55  68 E8        30.31R
RIFLE          CLOUDY    68  58  70 SW5       30.22F
DELTA          MOCLDY    83  54  37 N13       30.18R
NUCLA          PTCLDY    79  46  31 NW9       30.25S
$$

COZ017>023-064>068-280200-
...SOUTHWEST COLORADO...

CITY           SKY/WX    TMP DP  RH WIND       PRES   REMARKS
DURANGO        CLEAR     74  50  42 W10       30.24F
CORTEZ         CLEAR     78  52  40 W6        30.20F
PAGOSA SPRINGS CLOUDY    67  52  57 E3        30.35S
TELLURIDE      CLOUDY    59  50  73 CALM      30.47S
WOLF CREEK PAS MOCLDY    45  45 100 SW9       30.66S FOG
$$

COZ009-010-012-014-032>034-037-058>063-280200-
...CENTRAL COLORADO...

CITY           SKY/WX    TMP DP  RH WIND       PRES   REMARKS
ASPEN          MOCLDY    62  55  77 S5        30.36F
BUENA VISTA    MOCLDY    65  44  46 NW21G30   30.33S
COPPER MTN     MOCLDY    46  41  81 W17       30.64S
BERTHOUD PASS  FAIR      39  28  65 MISG      30.63S
COTTONWOOD PAS MOCLDY    61  43  51 NW5       30.47S
GUNNISON       PTCLDY    68  48  49 N7        30.36S
KREMMLING      MOCLDY    61  50  67 W7        30.33F
LEADVILLE      LGT RAIN  50  47  89 N9        30.50S
MONARCH PASS   PTCLDY    48  45  87 W15       30.73S
SALIDA         CLOUDY    73  47  39 W8        30.35F
SUNLIGHT       CLOUDY    54  46  76 N6        30.60F
WILKERSON PASS CLOUDY    54  37  54 N5        30.59R
$$

COZ069>075-280200-
...SAN LUIS VALLEY/SANGRE DE CRISTO MOUNTAINS...

CITY           SKY/WX    TMP DP  RH WIND       PRES   REMARKS
ALAMOSA        MOCLDY    72  47  40 NW6       30.28F
LA VETA PASS   CLOUDY    59  41  51 W8        30.47S
SAGUACHE       PTCLDY    70  46  43 N12       30.32F
$$

COZ035-036-038>040-280200-
...NORTHERN COLORADO FRONT RANGE...

CITY           SKY/WX    TMP DP  RH WIND       PRES   REMARKS
DENVER INTL AP MOCLDY    74  51  44 N10       30.13F
DMNS CITY PARK   N/A     74  50  43 NW5G15    30.14S
AURORA         MOCLDY    73  54  51 N6        30.16F
FRONT RANGE AP NOT AVBL
ERIE MUNI ARPT MOCLDY    73  61  66 CALM      30.11F
BOULDER MUN AP MOCLDY    73  54  49 S3        30.13F
CENTENNIAL     MOCLDY    73  55  53 N5        30.17F
BROOMFIELD     MOCLDY    72  57  60 CALM      30.16F
FORT COLLINS   MOCLDY    75  55  50 N6        30.11S
LONGMONT       MOCLDY    74  62  64 CALM      30.13F
$$

COZ041-046-047-076>085-087-088-280200-
...PIKES PEAK/PALMER DIVIDE AND SOUTHERN FOOTHILLS...

CITY           SKY/WX    TMP DP  RH WIND       PRES   REMARKS
COLO. SPRINGS  MOCLDY    68  55  63 NW15      30.22R
A. F. ACADEMY  LGT RAIN  64  59  85 N13       30.24S
ELLICOTT       TSTM     N/A N/A N/A NE9       30.21R
FALCON         MOCLDY    60  57  89 MISG      30.26F THUNDER
FORT CARSON    CLOUDY    67  57  71 N26G32    30.18R
LIMON          CLOUDY    73  51  46 NW15      30.14R
MONUMENT HILL  TSTM      59  54  82 CALM      30.28F
TRINIDAD       LGT RAIN  69  58  67 NE8       30.13R
$$

COZ042>045-048>051-090-091-280200-
...NORTHEAST COLORADO...

CITY           SKY/WX    TMP DP  RH WIND       PRES   REMARKS
GREELEY ARPT   MOCLDY    79  55  44 NW3       30.09F
AKRON          CLOUDY    69  62  78 NE9       30.06S
BURLINGTON     CLOUDY    82  49  31 W6        29.99S
WRAY           CLOUDY    74  65  73 NW8       29.96S
STERLING       CLOUDY    79  55  44 NE8       30.01S
HOLYOKE        CLOUDY    79  57  47 N14G21    29.97R
FORT MORGAN    MOCLDY    70  62  75 N3        30.07F
$$

COZ086-089-092>099-280200-
...SOUTHEAST COLORADO...

CITY           SKY/WX    TMP DP  RH WIND       PRES   REMARKS
PUEBLO         MOCLDY    85  51  31 NE22G40   30.05R
LA JUNTA       CLOUDY    77  59  53 E14       29.99R
LAMAR          LGT RAIN  73  61  65 NW16G24   29.99R
SPRINGFIELD      N/A     83  48  29 N6        29.97S
$$



USA.gov is the U.S. government's official web portal to all federal, state and local government web resources and services.